Weather History for Lakeland Region, FL

Change the Weather History Date:

Sunday, November 25, 2012

  Actual Average Record
Temperature  
Mean Temperature 56 °F -  
Max Temperature 71 °F 73 °F 86 °F (1986)
Min Temperature 41 °F 55 °F 37 °F (1991)
Degree Days  
Heating Degree Days 9    
Growing Degree Days 6 (Base 50)    
Moisture  
Dew Point 38 °F    
Average Humidity 69    
Maximum Humidity 100    
Minimum Humidity 20    
Precipitation  
Precipitation 0.00 in - - ()
Sea Level Pressure  
Sea Level Pressure 30.13 in    
Wind  
Wind Speed 2 mph (North)    
Max Wind Speed 7 mph    
Max Gust Speed -    
Visibility 12 miles    
Events      
Averages and records for this station are not official NWS values.
T = Trace of Precipitation, MM = Missing Value Source: NWS Daily Summary

Daily Weather History Graph

Daily Weather History Graph

Search for Another Location

Airport:

Trip Planner

Search our weather history database for the weather conditions in past years. The results will help you decide how hot, cold, wet, or windy it might be!

Date:

Astronomy

Nov. 25, 2012 Rise Set
Actual Time 6:57 AM EST 5:32 PM EST
Civil Twilight 6:32 AM EST 5:57 PM EST
Nautical Twilight 6:03 AM EST 6:26 PM EST
Astronomical Twilight 5:35 AM EST 6:54 PM EST
Moon 3:40 PM EST 4:20 AM EST
Length of Visible Light 11h 25m
Length of Day
10h 34m
Waxing Gibbous, 93% of the Moon is Illuminated
Nov 25
Waxing Gibbous
Nov 28
Full
Dec 6
Last Quarter
Dec 13
New
Dec 20
First Quarter

Hourly Weather History & Observations

Time (EST) Temp. Windchill Dew Point Humidity Pressure Visibility Wind Dir Wind Speed Gust Speed Precip Events Conditions
12:15 AM 44.6 °F - 42.8 °F 93% 30.10 in 3.0 mi Calm Calm - N/A   Clear
12:35 AM 42.8 °F - 41.0 °F 93% 30.11 in 10.0 mi Calm Calm - N/A   Clear
12:55 AM 42.8 °F - 41.0 °F 93% 30.11 in 10.0 mi Calm Calm - N/A   Clear
1:15 AM 42.8 °F 40.1 °F 42.8 °F 100% 30.12 in 10.0 mi North 4.6 mph - N/A   Clear
1:35 AM 44.6 °F 43.1 °F 42.8 °F 93% 30.10 in 10.0 mi North 3.5 mph - N/A   Clear
1:55 AM 44.6 °F 43.1 °F 42.8 °F 93% 30.11 in 10.0 mi NNW 3.5 mph - N/A   Clear
2:15 AM 44.6 °F - 42.8 °F 93% 30.10 in 10.0 mi Calm Calm - N/A   Clear
2:35 AM 44.6 °F 41.4 °F 41.0 °F 87% 30.10 in 10.0 mi North 5.8 mph - N/A   Clear
2:55 AM 44.6 °F 42.2 °F 41.0 °F 87% 30.10 in 10.0 mi North 4.6 mph - N/A   Clear
3:15 AM 44.6 °F - 41.0 °F 87% 30.11 in 10.0 mi Calm Calm - N/A   Clear
3:35 AM 44.6 °F - 41.0 °F 87% 30.11 in 10.0 mi Calm Calm - N/A   Clear
3:55 AM 44.6 °F - 39.2 °F 81% 30.10 in 10.0 mi Calm Calm - N/A   Clear
4:15 AM 42.8 °F - 39.2 °F 87% 30.10 in 10.0 mi Calm Calm - N/A   Clear
4:35 AM 42.8 °F - 39.2 °F 87% 30.10 in 10.0 mi Calm Calm - N/A   Clear
4:55 AM 42.8 °F - 39.2 °F 87% 30.10 in 10.0 mi Calm Calm - N/A   Clear
5:15 AM 41.0 °F - 37.4 °F 87% 30.10 in 10.0 mi Calm Calm - N/A   Clear
5:35 AM 41.0 °F - 39.2 °F 93% 30.11 in 10.0 mi Calm Calm - N/A   Clear
5:50 AM 42.8 °F - 39.2 °F 87% 30.11 in 7.0 mi Calm Calm - N/A   Clear
7:50 AM 42.8 °F 41.1 °F 39.2 °F 87% 30.16 in 15.0 mi North 3.5 mph - N/A   Clear
8:50 AM 51.8 °F - 39.2 °F 62% 30.18 in 15.0 mi North 3.5 mph - N/A   Clear
10:50 AM 64.4 °F - 33.8 °F 32% 30.19 in 15.0 mi Calm Calm - N/A   Clear
12:50 PM 68.0 °F - 30.2 °F 24% 30.14 in 15.0 mi NNE 4.6 mph - N/A   Clear
1:50 PM 69.8 °F - 28.4 °F 21% 30.11 in 15.0 mi NE 3.5 mph - N/A   Clear
2:54 PM 71.6 °F - 28.4 °F 20% 30.11 in 20.0 mi NNE 6.9 mph - N/A   Clear
3:54 PM 69.8 °F - 30.2 °F 23% 30.10 in 20.0 mi North 4.6 mph - N/A   Clear
4:53 PM 68.0 °F - 30.2 °F 24% 30.10 in 20.0 mi NNE 3.5 mph - N/A   Clear
5:52 PM 60.8 °F - 35.6 °F 39% 30.11 in 20.0 mi North 4.6 mph - N/A   Clear
6:51 PM 57.2 °F - 37.4 °F 48% 30.13 in 20.0 mi Calm Calm - N/A   Clear
7:53 PM 51.8 °F - 39.2 °F 62% 30.16 in 20.0 mi Calm Calm - N/A   Clear
8:53 PM 48.2 °F - 39.2 °F 71% 30.16 in 20.0 mi Calm Calm - N/A   Clear
9:51 PM 50.0 °F - 37.4 °F 62% 30.17 in 20.0 mi North 4.6 mph - N/A   Clear
9:55 PM 50.0 °F - 35.6 °F 58% 30.17 in 10.0 mi North 4.6 mph - N/A   Clear
10:15 PM 48.2 °F - 35.6 °F 62% 30.17 in 10.0 mi North 3.5 mph - N/A   Clear
10:35 PM 50.0 °F - 35.6 °F 58% 30.18 in 10.0 mi Calm Calm - N/A   Clear
10:55 PM 46.4 °F 45.2 °F 35.6 °F 66% 30.17 in 10.0 mi North 3.5 mph - N/A   Clear
11:15 PM 46.4 °F 45.2 °F 35.6 °F 66% 30.18 in 10.0 mi North 3.5 mph - N/A   Clear
11:35 PM 46.4 °F - 35.6 °F 66% 30.18 in 10.0 mi Calm Calm - N/A   Clear
11:55 PM 46.4 °F - 35.6 °F 66% 30.18 in 10.0 mi Calm Calm - N/A   Clear